NEODyS-2

Near Earth Objects - Dynamic Site
NEODyS ∴ Observatories ∴ Site 691 ∴ Obs & residuals
Contact »
691  ▹ 
OBSERVATIONS AND RESIDUALS

691-Steward Observatory, Kitt Peak-Spacewatch

Detections | Residuals | Detections & Residuals

[1-200] [201-400] [401-600] [601-800] [801-1000] [1001-1200] [1201-1400] [1401-1600] [1601-1800] [1801-2000] [2001-2200] [2201-2400] [2401-2600] [2601-2800] [2801-3000] [3001-3200] [3201-3400] [3401-3600] [3601-3800] [3801-4000] [4001-4200] [4201-4400] [4401-4600] [4601-4800] [4801-5000] [5001-5200] [5201-5400] [5401-5600] [5601-5800] [5801-6000] [6001-6200] [6201-6400] [6401-6600] [6601-6800] [6801-7000] [7001-7200] [7201-7400] [7401-7600] [7601-7800] [7801-8000] [8001-8200] [8201-8400] [8401-8600] [8601-8800] [8801-9000] [9001-9200] [9201-9400] [9401-9600] [9601-9800] [9801-10000] [10001-10200] [10201-10400] [10401-10600] [10601-10800] [10801-11000] [11001-11200] [11201-11400] [11401-11600] [11601-11800] [11801-12000] [12001-12200] [12201-12400] [12401-12600] [12601-12800] [12801-13000] [13001-13200] [13201-13400] [13401-13600] [13601-13800] [13801-14000] [14001-14200] [14201-14400] [14401-14600] [14601-14800] [14801-15000] [15001-15200] [15201-15400] [15401-15600] [15601-15800] [15801-16000] [16001-16200] [16201-16400] [16401-16600] [16601-16800] [16801-17000] [17001-17200] [17201-17400] [17401-17600] [17601-17800] [17801-18000] [18001-18200] [18201-18400] [18401-18600] [18601-18800] [18801-19000] [19001-19200] [19201-19400] [19401-19600] [19601-19800] [19801-20000] [20001-20200] [20201-20400] [20401-20600] [20601-20800] [20801-21000] [21001-21200] [21201-21400] [21401-21600] [21601-21800] [21801-22000] [22001-22200] [22201-22400] [22401-22600] [22601-22800] [22801-23000] [23001-23200] [23201-23400] [23401-23600] [23601-23800] [23801-24000] [24001-24200] [24201-24400] [24401-24600] [24601-24800] [24801-25000] [25001-25200] [25201-25400] [25401-25600] [25601-25800] [25801-26000] [26001-26200] [26201-26400] [26401-26600] [26601-26800] [26801-27000] [27001-27200] [27201-27400] [27401-27600] [27601-27800] [27801-28000] [28001-28200] [28201-28400] [28401-28600] [28601-28800] [28801-29000] [29001-29200] [29201-29400] [29401-29600] [29601-29800] [29801-30000] [30001-30200] [30201-30400] [30401-30600] [30601-30800] [30801-31000] [31001-31200] [31201-31400] [31401-31600] [31601-31800] [31801-32000] [32001-32200] [32201-32400] [32401-32600] [32601-32800] [32801-33000] [33001-33200] [33201-33400] [33401-33600] [33601-33800] [33801-34000] [34001-34200] [34201-34400] [34401-34600] [34601-34800] [34801-35000] [35001-35200] [35201-35400] [35401-35600] [35601-35800] [35801-36000] [36001-36200] [36201-36400] [36401-36600] [36601-36800] [36801-37000] [37001-37200] [37201-37400] [37401-37600] [37601-37800] [37801-38000] [38001-38200] [38201-38400] [38401-38600] [38601-38800] [38801-39000] [39001-39200] [39201-39400] [39401-39600] [39601-39800] [39801-40000] [40001-40200] [40201-40400] [40401-40600] [40601-40800] [40801-41000] [41001-41200] [41201-41400] [41401-41600] [41601-41800] [41801-42000] [42001-42200] [42201-42400] [42401-42600] [42601-42800] [42801-43000] [43001-43200] [43201-43400] [43401-43600] [43601-43800] [43801-44000] [44001-44200] [44201-44400] [44401-44600] [44601-44800] [44801-45000] [45001-45200] [45201-45400] [45401-45600] [45601-45800] [45801-46000] [46001-46200] [46201-46400] [46401-46600] [46601-46800] [46801-47000] [47001-47200] [47201-47400] [47401-47600] [47601-47800] [47801-48000] [48001-48200] [48201-48400] [48401-48600] [48601-48800] [48801-49000] [49001-49200] [49201-49400] [49401-49600] [49601-49800] [49801-50000] [50001-50200] [50201-50400] [50401-50600] [50601-50741]

Designation T Tech N Date Right Ascension Declination Apparent Magnitude Star Catalog Site code χ Used A Used M
yr-mo-day precision hr:min:sec precision rms F bias residual deg min sec precision rms F bias residual mag/col rms residual
Khufu O A 1986-08-31.40559 1.000E-05 01:56:50.310 1.500E-01 2.500 F 0.000 1.610 -00° 05' 13.90" 1.000E-01 2.500 F 0.000 -0.496 B 691 0.68 Yes No
Khufu O A 1986-08-31.40853 1.000E-05 01:56:49.700 1.500E-01 2.500 F 0.000 1.898 -00° 05' 22.60" 1.000E-01 2.500 F 0.000 -0.303 B 691 0.77 Yes No
Khufu O A 1986-08-31.42845 1.000E-05 01:56:45.410 1.500E-01 2.500 F 0.000 1.565 -00° 06' 23.00" 1.000E-01 2.500 F 0.000 -0.447 B 691 0.65 Yes No
Verenia O A 1986-09-01.28898 1.000E-05 19:22:50.790 1.500E-01 2.500 F 0.000 -0.620 +00° 07' 19.80" 1.000E-01 2.500 F 0.000 0.850 B 691 0.42 Yes No
Verenia O A 1986-09-01.29969 1.000E-05 19:22:51.300 1.500E-01 2.500 F 0.000 -0.683 +00° 06' 57.40" 1.000E-01 2.500 F 0.000 1.154 B 691 0.54 Yes No
Verenia O A 1986-09-01.30803 1.000E-05 19:22:51.740 1.500E-01 2.500 F 0.000 -0.187 +00° 06' 40.20" 1.000E-01 2.500 F 0.000 1.641 B 691 0.66 Yes No
Vishnu O A 1986-09-02.15515 1.000E-05 18:21:05.960 1.500E-01 2.500 F 0.000 -0.156 -14° 12' 19.00" 1.000E-01 2.500 F 0.000 -0.806 B 691 0.33 Yes No
Vishnu O A 1986-09-02.16300 1.000E-05 18:21:04.720 1.500E-01 2.500 F 0.000 0.199 -14° 12' 34.90" 1.000E-01 2.500 F 0.000 -1.212 B 691 0.49 Yes No
Vishnu O A 1986-09-02.17082 1.000E-05 18:21:03.400 1.500E-01 2.500 F 0.000 -0.696 -14° 12' 50.10" 1.000E-01 2.500 F 0.000 -0.992 B 691 0.48 Yes No
Huma O A 1986-09-02.20159 1.000E-05 17:37:02.910 1.500E-01 2.500 F 0.000 0.793 +31° 10' 04.60" 1.000E-01 2.500 F 0.000 -0.588 17.9 V 0.70 0.57 B 691 0.40 Yes Yes
Huma O A 1986-09-02.21331 1.000E-05 17:37:06.150 1.500E-01 2.500 F 0.000 0.636 +31° 10' 04.20" 1.000E-01 2.500 F 0.000 -0.644 B 691 0.36 Yes No
Huma O A 1986-09-02.22306 1.000E-05 17:37:08.850 1.500E-01 2.500 F 0.000 0.472 +31° 10' 04.10" 1.000E-01 2.500 F 0.000 -0.403 B 691 0.25 Yes No
Khufu O A 1986-09-02.38148 1.000E-05 01:49:59.870 1.500E-01 2.500 F 0.000 0.106 -01° 45' 12.20" 1.000E-01 2.500 F 0.000 0.342 17.9 V 0.70 0.57 B 691 0.14 Yes Yes
Khufu O A 1986-09-02.39616 1.000E-05 01:49:56.580 1.500E-01 2.500 F 0.000 -0.202 -01° 45' 57.40" 1.000E-01 2.500 F 0.000 -0.149 B 691 0.10 Yes No
Khufu O A 1986-09-02.40785 1.000E-05 01:49:53.990 1.500E-01 2.500 F 0.000 0.055 -01° 46' 32.60" 1.000E-01 2.500 F 0.000 0.250 B 691 0.10 Yes No
Nefertiti O A 1986-09-02.47399 1.000E-05 23:43:30.750 1.500E-01 2.500 F 0.000 -1.087 +11° 31' 03.00" 1.000E-01 2.500 F 0.000 0.447 B 691 0.47 Yes No
Nefertiti O A 1986-09-02.48701 1.000E-05 23:43:26.490 1.500E-01 2.500 F 0.000 0.560 +11° 32' 42.80" 1.000E-01 2.500 F 0.000 0.686 B 691 0.36 Yes No
Nefertiti O A 1986-09-02.49984 1.000E-05 23:43:22.330 1.500E-01 2.500 F 0.000 2.612 +11° 34' 18.10" 1.000E-01 2.500 F 0.000 -2.115 B 691 1.34 Yes No
Vishnu O A 1986-09-03.14652 1.000E-05 18:18:38.330 1.500E-01 2.500 F 0.000 1.496 -14° 44' 55.60" 1.000E-01 2.500 F 0.000 -0.765 B 691 0.67 Yes No
Vishnu O A 1986-09-03.16194 1.000E-05 18:18:35.880 1.500E-01 2.500 F 0.000 0.983 -14° 45' 25.60" 1.000E-01 2.500 F 0.000 -0.555 B 691 0.45 Yes No
Vishnu O A 1986-09-03.17755 1.000E-05 18:18:33.370 1.500E-01 2.500 F 0.000 -0.040 -14° 45' 56.70" 1.000E-01 2.500 F 0.000 -1.131 B 691 0.45 Yes No
Verenia O A 1986-09-03.18698 1.000E-05 19:24:59.110 1.500E-01 2.500 F 0.000 -0.775 -01° 02' 28.50" 1.000E-01 2.500 F 0.000 0.330 B 691 0.34 Yes No
Verenia O A 1986-09-03.19470 1.000E-05 19:24:59.580 1.500E-01 2.500 F 0.000 -0.320 -01° 02' 46.70" 1.000E-01 2.500 F 0.000 -0.151 B 691 0.14 Yes No
Verenia O A 1986-09-03.20854 1.000E-05 19:25:00.360 1.500E-01 2.500 F 0.000 -0.502 -01° 03' 18.50" 1.000E-01 2.500 F 0.000 -0.176 B 691 0.21 Yes No
Mera O A 1986-09-03.42743 1.000E-05 04:18:03.140 1.500E-01 2.500 F 0.000 0.904 +36° 52' 31.30" 1.000E-01 2.500 F 0.000 -1.035 B 691 0.55 Yes No
Mera O A 1986-09-03.43815 1.000E-05 04:18:04.080 1.500E-01 2.500 F 0.000 0.242 +36° 52' 28.60" 1.000E-01 2.500 F 0.000 -1.373 B 691 0.56 Yes No
Mera O A 1986-09-03.44442 1.000E-05 04:18:04.680 1.500E-01 2.500 F 0.000 0.464 +36° 52' 27.80" 1.000E-01 2.500 F 0.000 -0.785 B 691 0.37 Yes No
Nefertiti O A 1986-09-03.48252 1.000E-05 23:37:54.100 1.500E-01 2.500 F 0.000 0.630 +13° 41' 04.40" 1.000E-01 2.500 F 0.000 -0.995 B 691 0.47 Yes No
Nefertiti O A 1986-09-03.48440 1.000E-05 23:37:53.410 1.500E-01 2.500 F 0.000 0.180 +13° 41' 19.60" 1.000E-01 2.500 F 0.000 -0.372 B 691 0.17 Yes No
Nefertiti O A 1986-09-03.50390 1.000E-05 23:37:46.620 1.500E-01 2.500 F 0.000 0.687 +13° 43' 51.00" 1.000E-01 2.500 F 0.000 -0.148 B 691 0.28 Yes No
Huma O A 1986-09-25.09527 1.000E-05 19:45:17.040 1.500E-01 2.500 F 0.000 0.431 +26° 59' 19.70" 1.000E-01 2.500 F 0.000 -0.303 B 691 0.21 Yes No
Huma O A 1986-09-25.10774 1.000E-05 19:45:21.360 1.500E-01 2.500 F 0.000 0.262 +26° 59' 02.10" 1.000E-01 2.500 F 0.000 -0.379 B 691 0.18 Yes No
Taranis O A 1986-09-25.18331 1.000E-05 22:43:06.200 1.500E-01 2.500 F 0.000 -4.779 -07° 08' 07.20" 1.000E-01 2.500 F 0.000 -0.498 14.9 V 0.70 1.21 B 691 1.94 Yes Yes
Taranis O A 1986-09-25.20029 1.000E-05 22:43:10.420 1.500E-01 2.500 F 0.000 -0.014 -07° 09' 11.70" 1.000E-01 2.500 F 0.000 -0.319 B 691 0.13 Yes No
Taranis O A 1986-09-25.21336 1.000E-05 22:43:13.420 1.500E-01 2.500 F 0.000 0.028 -07° 10' 01.30" 1.000E-01 2.500 F 0.000 -0.181 B 691 0.07 Yes No
Huma O A 1986-09-26.17012 1.000E-05 19:51:45.180 1.500E-01 2.500 F 0.000 -0.904 +26° 33' 20.50" 1.000E-01 2.500 F 0.000 -0.831 B 691 0.50 Yes No
Huma O A 1986-09-26.18093 1.000E-05 19:51:48.940 1.500E-01 2.500 F 0.000 -0.912 +26° 33' 03.90" 1.000E-01 2.500 F 0.000 -1.095 B 691 0.58 Yes No
Hypnos O A 1986-09-26.38332 1.000E-05 03:43:26.000 1.500E-01 2.500 F 0.000 -1.328 +16° 39' 10.60" 1.000E-01 2.500 F 0.000 -0.668 B 691 0.59 Yes No
Mera O A 1986-09-26.40027 1.000E-05 04:48:48.080 1.500E-01 2.500 F 0.000 -1.199 +34° 03' 22.10" 1.000E-01 2.500 F 0.000 0.057 B 691 0.48 Yes No
Mera O A 1986-09-26.42686 1.000E-05 04:48:49.620 1.500E-01 2.500 F 0.000 -1.797 +34° 03' 03.60" 1.000E-01 2.500 F 0.000 -0.266 B 691 0.73 Yes No
Mera O A 1986-09-26.43222 1.000E-05 04:48:49.960 1.500E-01 2.500 F 0.000 -1.539 +34° 03' 00.10" 1.000E-01 2.500 F 0.000 -0.089 B 691 0.62 Yes No
Pele O A 1986-09-26.49086 1.000E-05 07:03:33.250 1.500E-01 2.500 F 0.000 0.847 +12° 08' 46.90" 1.000E-01 2.500 F 0.000 -0.151 B 691 0.34 Yes No
Pele O A 1986-09-26.50024 1.000E-05 07:03:35.060 1.500E-01 2.500 F 0.000 0.209 +12° 08' 40.60" 1.000E-01 2.500 F 0.000 0.845 B 691 0.35 Yes No
Pele O A 1986-09-26.51243 1.000E-05 07:03:37.520 1.500E-01 2.500 F 0.000 0.993 +12° 08' 30.50" 1.000E-01 2.500 F 0.000 0.235 B 691 0.41 Yes No
Taranis O A 1986-09-27.18097 1.000E-05 22:51:02.440 1.500E-01 2.500 F 0.000 1.018 -09° 10' 40.40" 1.000E-01 2.500 F 0.000 -0.249 15.1 V 0.70 1.32 B 691 0.42 Yes Yes
Taranis O A 1986-09-27.19578 1.000E-05 22:51:05.770 1.500E-01 2.500 F 0.000 1.025 -09° 11' 33.10" 1.000E-01 2.500 F 0.000 -0.163 B 691 0.42 Yes No
Taranis O A 1986-09-27.20001 1.000E-05 22:51:06.720 1.500E-01 2.500 F 0.000 1.026 -09° 11' 47.90" 1.000E-01 2.500 F 0.000 0.102 B 691 0.42 Yes No
Hypnos O A 1986-09-27.34523 1.000E-05 03:42:10.430 1.500E-01 2.500 F 0.000 0.667 +16° 36' 31.60" 1.000E-01 2.500 F 0.000 -0.398 B 691 0.31 Yes No
Hypnos O A 1986-09-27.36253 1.000E-05 03:42:08.870 1.500E-01 2.500 F 0.000 -0.755 +16° 36' 29.40" 1.000E-01 2.500 F 0.000 0.154 B 691 0.31 Yes No
Hypnos O A 1986-09-27.36687 1.000E-05 03:42:08.560 1.500E-01 2.500 F 0.000 0.070 +16° 36' 28.10" 1.000E-01 2.500 F 0.000 -0.450 B 691 0.18 Yes No
Mera O A 1986-09-27.40286 1.000E-05 04:49:49.830 1.500E-01 2.500 F 0.000 -0.507 +33° 51' 31.00" 1.000E-01 2.500 F 0.000 -1.538 19.4 V 0.70 0.05 B 691 0.65 Yes Yes
Mera O A 1986-09-27.41693 1.000E-05 04:49:50.590 1.500E-01 2.500 F 0.000 -1.170 +33° 51' 21.10" 1.000E-01 2.500 F 0.000 -1.445 B 691 0.74 Yes No
Pele O A 1986-09-27.48552 1.000E-05 07:06:51.820 1.500E-01 2.500 F 0.000 0.483 +11° 55' 44.70" 1.000E-01 2.500 F 0.000 0.470 B 691 0.27 Yes No
Pele O A 1986-09-27.49016 1.000E-05 07:06:52.670 1.500E-01 2.500 F 0.000 -0.324 +11° 55' 41.70" 1.000E-01 2.500 F 0.000 1.097 B 691 0.46 Yes No
Phaethon O A 1986-10-24.25299 1.000E-05 00:57:04.230 1.500E-01 2.500 F 0.000 -1.028 +48° 22' 13.10" 1.000E-01 2.500 F 0.000 -0.833 16.8 V 0.70 0.50 B 691 0.53 Yes Yes
Phaethon O A 1986-10-24.26384 1.000E-05 00:57:01.760 1.500E-01 2.500 F 0.000 -1.339 +48° 21' 49.20" 1.000E-01 2.500 F 0.000 -0.786 B 691 0.62 Yes No
Phaethon O A 1986-10-24.27029 1.000E-05 00:57:00.280 1.500E-01 2.500 F 0.000 -1.647 +48° 21' 34.30" 1.000E-01 2.500 F 0.000 -1.435 B 691 0.87 Yes No
Mera O A 1986-10-24.31156 1.000E-05 05:02:24.440 1.500E-01 2.500 F 0.000 0.931 +24° 48' 02.90" 1.000E-01 2.500 F 0.000 -0.099 B 691 0.37 Yes No
Mera O A 1986-10-24.31778 1.000E-05 05:02:24.300 1.500E-01 2.500 F 0.000 0.222 +24° 47' 51.90" 1.000E-01 2.500 F 0.000 0.313 B 691 0.15 Yes No
Mera O A 1986-10-24.33029 1.000E-05 05:02:24.140 1.500E-01 2.500 F 0.000 0.483 +24° 47' 28.50" 1.000E-01 2.500 F 0.000 -0.112 B 691 0.20 Yes No
Huma O A 1986-10-25.11803 1.000E-05 22:25:12.880 1.500E-01 2.500 F 0.000 -1.329 +12° 15' 53.20" 1.000E-01 2.500 F 0.000 0.365 B 691 0.55 Yes No
Huma O A 1986-10-25.12895 1.000E-05 22:25:15.550 1.500E-01 2.500 F 0.000 -1.319 +12° 15' 36.20" 1.000E-01 2.500 F 0.000 0.062 B 691 0.53 Yes No
Huma O A 1986-10-25.13738 1.000E-05 22:25:17.620 1.500E-01 2.500 F 0.000 -1.166 +12° 15' 23.40" 1.000E-01 2.500 F 0.000 0.164 B 691 0.47 Yes No
Seleucus O A 1986-10-25.19354 1.000E-05 02:34:01.950 1.500E-01 2.500 F 0.000 0.929 +15° 16' 47.80" 1.000E-01 2.500 F 0.000 -0.356 B 691 0.40 Yes No
Seleucus O A 1986-10-25.19986 1.000E-05 02:34:01.480 1.500E-01 2.500 F 0.000 0.237 +15° 16' 45.30" 1.000E-01 2.500 F 0.000 -0.380 B 691 0.18 Yes No
Seleucus O A 1986-10-25.21274 1.000E-05 02:34:00.690 1.500E-01 2.500 F 0.000 1.270 +15° 16' 40.40" 1.000E-01 2.500 F 0.000 -0.229 B 691 0.52 Yes No
Hypnos O A 1986-10-25.21997 1.000E-05 02:53:03.850 1.500E-01 3.307 F 0.000 0.363 +14° 23' 24.20" 1.000E-01 3.307 F 0.000 -0.207 B 691 0.13 Yes No
Hypnos O A 1986-10-25.22470 1.000E-05 02:53:03.480 1.500E-01 3.307 F 0.000 2.852 +14° 23' 22.70" 1.000E-01 3.307 F 0.000 -0.107 B 691 0.86 Yes No
Hypnos O A 1986-10-25.22929 1.000E-05 02:53:02.950 1.500E-01 3.307 F 0.000 2.789 +14° 23' 20.80" 1.000E-01 3.307 F 0.000 -0.452 B 691 0.85 Yes No
Hypnos O A 1986-10-25.24463 1.000E-05 02:53:01.020 1.500E-01 3.307 F 0.000 0.303 +14° 23' 16.00" 1.000E-01 3.307 F 0.000 -0.045 B 691 0.09 Yes No
Hypnos O A 1986-10-25.26464 1.000E-05 02:52:58.830 1.500E-01 3.307 F 0.000 1.887 +14° 23' 08.40" 1.000E-01 3.307 F 0.000 -0.826 B 691 0.62 Yes No
Hypnos O A 1986-10-25.26991 1.000E-05 02:52:58.160 1.500E-01 3.307 F 0.000 0.960 +14° 23' 07.30" 1.000E-01 3.307 F 0.000 -0.124 B 691 0.29 Yes No
Hypnos O A 1986-10-25.27456 1.000E-05 02:52:57.520 1.500E-01 3.307 F 0.000 -0.564 +14° 23' 05.70" 1.000E-01 3.307 F 0.000 -0.133 B 691 0.18 Yes No
Huma O A 1986-10-30.14274 1.000E-05 22:45:34.880 1.500E-01 2.500 F 0.000 -0.187 +10° 16' 37.00" 1.000E-01 2.500 F 0.000 1.103 B 691 0.45 Yes No
Huma O A 1986-10-30.15198 1.000E-05 22:45:36.980 1.500E-01 2.500 F 0.000 0.329 +10° 16' 24.90" 1.000E-01 2.500 F 0.000 1.110 B 691 0.46 Yes No
Huma O A 1986-10-30.16653 1.000E-05 22:45:40.270 1.500E-01 2.500 F 0.000 0.901 +10° 16' 05.50" 1.000E-01 2.500 F 0.000 0.792 B 691 0.48 Yes No
Taranis O A 1986-10-30.21551 1.000E-05 00:29:30.660 1.500E-01 2.500 F 0.000 -0.071 -23° 28' 24.10" 1.000E-01 2.500 F 0.000 -0.871 16.5 V 0.70 0.79 B 691 0.35 Yes Yes
Taranis O A 1986-10-30.22615 1.000E-05 00:29:31.950 1.500E-01 2.500 F 0.000 -0.025 -23° 28' 25.00" 1.000E-01 2.500 F 0.000 -0.715 B 691 0.29 Yes No
Seleucus O A 1986-10-30.27366 1.000E-05 02:28:23.580 1.500E-01 2.500 F 0.000 0.619 +14° 42' 27.70" 1.000E-01 2.500 F 0.000 -0.207 B 691 0.26 Yes No
Seleucus O A 1986-10-30.27895 1.000E-05 02:28:23.170 1.500E-01 2.500 F 0.000 -0.042 +14° 42' 26.10" 1.000E-01 2.500 F 0.000 0.373 B 691 0.15 Yes No
Seleucus O A 1986-10-30.30409 1.000E-05 02:28:21.440 1.500E-01 2.500 F 0.000 -0.007 +14° 42' 15.50" 1.000E-01 2.500 F 0.000 0.151 B 691 0.06 Yes No
Hypnos O A 1986-10-30.31223 1.000E-05 02:43:53.170 1.500E-01 3.307 F 0.000 0.546 +13° 54' 15.60" 1.000E-01 3.307 F 0.000 1.014 B 691 0.35 Yes No
Hypnos O A 1986-10-30.31683 1.000E-05 02:43:52.650 1.500E-01 3.307 F 0.000 0.222 +13° 54' 14.50" 1.000E-01 3.307 F 0.000 1.461 B 691 0.45 Yes No
Hypnos O A 1986-10-30.32142 1.000E-05 02:43:52.090 1.500E-01 3.307 F 0.000 -0.701 +13° 54' 12.40" 1.000E-01 3.307 F 0.000 0.905 B 691 0.35 Yes No
Hypnos O A 1986-10-30.33782 1.000E-05 02:43:50.450 1.500E-01 3.307 F 0.000 1.249 +13° 54' 06.00" 1.000E-01 3.307 F 0.000 0.039 B 691 0.38 Yes No
Hypnos O A 1986-10-30.35764 1.000E-05 02:43:48.240 1.500E-01 3.307 F 0.000 0.257 +13° 54' 00.30" 1.000E-01 3.307 F 0.000 1.057 B 691 0.33 Yes No
Hypnos O A 1986-10-30.36215 1.000E-05 02:43:47.760 1.500E-01 3.307 F 0.000 0.359 +13° 53' 59.40" 1.000E-01 3.307 F 0.000 1.690 B 691 0.52 Yes No
Hypnos O A 1986-10-30.36699 1.000E-05 02:43:47.180 1.500E-01 3.307 F 0.000 -0.479 +13° 53' 57.60" 1.000E-01 3.307 F 0.000 1.537 B 691 0.49 Yes No
Mera O A 1986-11-29.33171 1.000E-05 04:19:30.750 1.500E-01 2.500 F 0.000 -0.720 -04° 53' 06.50" 1.000E-01 2.500 F 0.000 -0.390 17.4 V 0.70 0.51 B 691 0.33 Yes Yes
Mera O A 1986-11-29.34049 1.000E-05 04:19:29.680 1.500E-01 2.500 F 0.000 -0.614 -04° 53' 37.60" 1.000E-01 2.500 F 0.000 0.138 B 691 0.25 Yes No
Mera O A 1986-11-29.34877 1.000E-05 04:19:28.590 1.500E-01 2.500 F 0.000 -1.732 -04° 54' 07.80" 1.000E-01 2.500 F 0.000 -0.240 B 691 0.70 Yes No
Taranis O A 1986-11-30.16525 1.000E-05 01:23:50.410 1.500E-01 2.500 F 0.000 -0.495 -19° 38' 44.40" 1.000E-01 2.500 F 0.000 -0.152 17.9 V 0.70 0.73 B 691 0.21 Yes Yes
Taranis O A 1986-11-30.17507 1.000E-05 01:23:51.300 1.500E-01 2.500 F 0.000 -0.170 -19° 38' 37.00" 1.000E-01 2.500 F 0.000 -0.360 B 691 0.16 Yes No
Huma O A 1986-12-02.09771 1.000E-05 00:26:14.110 1.500E-01 2.500 F 0.000 -1.096 +04° 27' 30.60" 1.000E-01 2.500 F 0.000 -0.348 19.2 V 0.70 0.14 B 691 0.46 Yes Yes
Huma O A 1986-12-02.10178 1.000E-05 00:26:14.680 1.500E-01 2.500 F 0.000 -1.352 +04° 27' 30.30" 1.000E-01 2.500 F 0.000 -0.239 B 691 0.55 Yes No
Huma O A 1986-12-02.13500 1.000E-05 00:26:19.490 1.500E-01 2.500 F 0.000 -1.043 +04° 27' 26.50" 1.000E-01 2.500 F 0.000 -0.701 B 691 0.50 Yes No
Hephaistos O A 1986-12-02.28388 1.000E-05 03:49:11.690 1.500E-01 2.500 F 0.000 0.296 +29° 32' 03.00" 1.000E-01 2.500 F 0.000 -0.023 B 691 0.12 Yes No
Hephaistos O A 1986-12-02.29420 1.000E-05 03:49:10.910 1.500E-01 2.500 F 0.000 0.396 +29° 32' 00.40" 1.000E-01 2.500 F 0.000 -0.588 B 691 0.28 Yes No
Hephaistos O A 1986-12-02.30378 1.000E-05 03:49:10.170 1.500E-01 2.500 F 0.000 0.280 +29° 31' 59.10" 1.000E-01 2.500 F 0.000 0.007 18.7 V 0.70 -0.11 B 691 0.11 Yes Yes
Geographos O A 1986-12-02.35525 1.000E-05 07:22:53.240 1.500E-01 2.500 F 0.000 0.482 +49° 57' 36.40" 1.000E-01 2.500 F 0.000 0.357 B 691 0.24 Yes No
Geographos O A 1986-12-02.36456 1.000E-05 07:22:52.270 1.500E-01 2.500 F 0.000 0.160 +49° 57' 44.00" 1.000E-01 2.500 F 0.000 0.766 B 691 0.31 Yes No
Geographos O A 1986-12-02.37308 1.000E-05 07:22:51.450 1.500E-01 2.500 F 0.000 0.532 +49° 57' 49.70" 1.000E-01 2.500 F 0.000 -0.092 B 691 0.22 Yes No
Pele O A 1986-12-02.44146 1.000E-05 09:09:07.210 1.500E-01 2.500 F 0.000 -0.110 +00° 15' 38.10" 1.000E-01 2.500 F 0.000 -0.134 18.7 V 0.70 -0.29 B 691 0.07 Yes Yes
Pele O A 1986-12-02.45466 1.000E-05 09:09:07.410 1.500E-01 2.500 F 0.000 -0.191 +00° 15' 34.70" 1.000E-01 2.500 F 0.000 -0.317 B 691 0.15 Yes No
Pele O A 1986-12-02.46662 1.000E-05 09:09:07.630 1.500E-01 2.500 F 0.000 0.337 +00° 15' 31.20" 1.000E-01 2.500 F 0.000 -0.905 B 691 0.39 Yes No
Amun O A 1986-12-02.47500 1.000E-05 13:12:20.180 1.500E-01 2.500 F 0.000 1.532 +25° 49' 02.10" 1.000E-01 2.500 F 0.000 -0.475 18.3 V 0.70 0.96 B 691 0.64 Yes Yes
Amun O A 1986-12-02.48532 1.000E-05 13:12:21.190 1.500E-01 2.500 F 0.000 1.268 +25° 48' 51.40" 1.000E-01 2.500 F 0.000 -1.704 B 691 0.85 Yes No
Amun O A 1986-12-02.49753 1.000E-05 13:12:22.430 1.500E-01 2.500 F 0.000 1.614 +25° 48' 41.10" 1.000E-01 2.500 F 0.000 -0.787 B 691 0.72 Yes No
Huma O A 1986-12-04.10412 1.000E-05 00:31:11.090 1.500E-01 2.500 F 0.000 -0.059 +04° 24' 53.80" 1.000E-01 2.500 F 0.000 -0.203 B 691 0.08 Yes No
Huma O A 1986-12-04.10966 1.000E-05 00:31:11.880 1.500E-01 2.500 F 0.000 -0.005 +04° 24' 53.40" 1.000E-01 2.500 F 0.000 -0.301 B 691 0.12 Yes No
Huma O A 1986-12-04.12148 1.000E-05 00:31:13.560 1.500E-01 2.500 F 0.000 0.036 +04° 24' 53.10" 1.000E-01 2.500 F 0.000 0.046 19.3 V 0.70 0.15 B 691 0.02 Yes Yes
Taranis O A 1986-12-04.12642 1.000E-05 01:29:52.880 1.500E-01 2.500 F 0.000 -0.358 -18° 46' 07.90" 1.000E-01 2.500 F 0.000 -0.539 17.7 V 0.70 0.36 B 691 0.26 Yes Yes
Taranis O A 1986-12-04.14350 1.000E-05 01:29:54.380 1.500E-01 2.500 F 0.000 -0.239 -18° 45' 54.20" 1.000E-01 2.500 F 0.000 -0.727 B 691 0.31 Yes No
Taranis O A 1986-12-04.15453 1.000E-05 01:29:55.350 1.500E-01 2.500 F 0.000 -0.134 -18° 45' 44.50" 1.000E-01 2.500 F 0.000 -0.014 B 691 0.05 Yes No
Epona O A 1986-12-04.15828 1.000E-05 00:41:53.660 1.500E-01 2.500 F 0.000 0.870 +09° 25' 55.00" 1.000E-01 2.500 F 0.000 0.218 16.7 V 0.70 0.40 B 691 0.36 Yes Yes
Epona O A 1986-12-04.16188 1.000E-05 00:41:54.400 1.500E-01 2.500 F 0.000 0.673 +09° 25' 49.90" 1.000E-01 2.500 F 0.000 0.618 B 691 0.37 Yes No
Epona O A 1986-12-04.18486 1.000E-05 00:41:59.220 1.500E-01 2.500 F 0.000 0.851 +09° 25' 15.30" 1.000E-01 2.500 F 0.000 1.116 B 691 0.56 Yes No
Hephaistos O A 1986-12-04.36890 1.000E-05 03:46:36.030 1.500E-01 2.500 F 0.000 0.423 +29° 25' 02.00" 1.000E-01 2.500 F 0.000 -0.234 18.9 V 0.70 0.06 B 691 0.19 Yes Yes
Hephaistos O A 1986-12-04.37850 1.000E-05 03:46:35.290 1.500E-01 2.500 F 0.000 0.174 +29° 24' 59.60" 1.000E-01 2.500 F 0.000 -0.598 B 691 0.25 Yes No
Hephaistos O A 1986-12-04.38282 1.000E-05 03:46:34.990 1.500E-01 2.500 F 0.000 0.491 +29° 24' 58.60" 1.000E-01 2.500 F 0.000 -0.680 B 691 0.34 Yes No
Pele O A 1986-12-27.45635 1.000E-05 09:01:13.880 1.500E-01 2.500 F 0.000 -1.338 +00° 30' 31.70" 1.000E-01 2.500 F 0.000 -0.854 18.9 V 0.70 0.15 B 691 0.64 Yes Yes
Pele O A 1986-12-27.46758 1.000E-05 09:01:13.320 1.500E-01 2.500 F 0.000 0.172 +00° 30' 35.60" 1.000E-01 2.500 F 0.000 -0.755 B 691 0.31 Yes No
Pele O A 1986-12-27.47890 1.000E-05 09:01:12.530 1.500E-01 2.500 F 0.000 -1.698 +00° 30' 39.80" 1.000E-01 2.500 F 0.000 -0.390 B 691 0.70 Yes No
Amun O A 1986-12-27.51094 1.000E-05 13:50:25.550 1.500E-01 2.500 F 0.000 1.527 +19° 17' 47.20" 1.000E-01 2.500 F 0.000 -0.111 17.5 V 0.70 0.21 B 691 0.61 Yes Yes
Amun O A 1986-12-27.51868 1.000E-05 13:50:26.130 1.500E-01 2.500 F 0.000 1.416 +19° 17' 40.40" 1.000E-01 2.500 F 0.000 0.075 B 691 0.57 Yes No
Phaethon O A 1986-12-29.15986 1.000E-05 00:17:51.230 1.500E-01 2.500 F 0.000 -0.177 +22° 29' 59.80" 1.000E-01 2.500 F 0.000 1.519 B 691 0.61 Yes No
Phaethon O A 1986-12-29.16912 1.000E-05 00:17:51.690 1.500E-01 2.500 F 0.000 0.248 +22° 29' 54.30" 1.000E-01 2.500 F 0.000 0.174 18.6 V 0.70 0.01 B 691 0.12 Yes Yes
Phaethon O A 1986-12-29.18743 1.000E-05 00:17:52.550 1.500E-01 2.500 F 0.000 0.372 +22° 29' 47.30" 1.000E-01 2.500 F 0.000 1.397 B 691 0.58 Yes No
Verenia O A 1986-12-29.26666 1.000E-05 03:46:35.130 1.500E-01 2.500 F 0.000 -0.252 -05° 08' 13.00" 1.000E-01 2.500 F 0.000 0.910 17.9 V 0.70 0.37 B 691 0.38 Yes Yes
Verenia O A 1986-12-29.27301 1.000E-05 03:46:35.540 1.500E-01 2.500 F 0.000 -0.706 -05° 08' 04.20" 1.000E-01 2.500 F 0.000 0.332 B 691 0.31 Yes No
Verenia O A 1986-12-29.28955 1.000E-05 03:46:36.730 1.500E-01 2.500 F 0.000 -0.112 -05° 07' 39.80" 1.000E-01 2.500 F 0.000 0.300 B 691 0.13 Yes No
Taranis O A 1986-12-30.14856 1.000E-05 02:08:33.140 1.500E-01 2.500 F 0.000 1.283 -12° 24' 46.10" 1.000E-01 2.500 F 0.000 0.121 18.6 V 0.70 0.30 B 691 0.52 Yes Yes
Taranis O A 1986-12-30.16201 1.000E-05 02:08:34.310 1.500E-01 2.500 F 0.000 1.394 -12° 24' 33.70" 1.000E-01 2.500 F 0.000 0.388 B 691 0.58 Yes No
Taranis O A 1986-12-30.16944 1.000E-05 02:08:34.960 1.500E-01 2.500 F 0.000 1.505 -12° 24' 27.00" 1.000E-01 2.500 F 0.000 0.381 B 691 0.62 Yes No
Taranis O A 1987-01-25.12740 1.000E-05 02:47:34.340 1.500E-01 2.500 F 0.000 0.340 -06° 08' 59.70" 1.000E-01 2.500 F 0.000 -1.311 B 691 0.54 Yes No
Taranis O A 1987-01-25.14987 1.000E-05 02:47:36.380 1.500E-01 2.500 F 0.000 0.671 -06° 08' 40.90" 1.000E-01 2.500 F 0.000 -0.932 B 691 0.46 Yes No
Taranis O A 1987-01-25.15506 1.000E-05 02:47:36.840 1.500E-01 2.500 F 0.000 0.576 -06° 08' 36.90" 1.000E-01 2.500 F 0.000 -1.187 B 691 0.53 Yes No
Epona O A 1987-01-25.16231 1.000E-05 02:24:40.540 1.500E-01 2.500 F 0.000 -2.916 +05° 13' 17.90" 1.000E-01 2.500 F 0.000 1.396 B 691 1.29 Yes No
Epona O A 1987-01-25.16696 1.000E-05 02:24:40.940 1.500E-01 2.500 F 0.000 -3.089 +05° 13' 18.60" 1.000E-01 2.500 F 0.000 1.242 B 691 1.33 Yes No
Epona O A 1987-01-25.17697 1.000E-05 02:24:41.830 1.500E-01 2.500 F 0.000 -3.038 +05° 13' 20.50" 1.000E-01 2.500 F 0.000 1.305 B 691 1.32 Yes No
Epona O A 1987-01-29.09214 1.000E-05 02:30:34.300 1.500E-01 2.500 F 0.000 0.105 +05° 26' 05.30" 1.000E-01 2.500 F 0.000 -0.742 B 691 0.30 Yes No
Epona O A 1987-01-29.09954 1.000E-05 02:30:34.940 1.500E-01 2.500 F 0.000 -0.037 +05° 26' 06.70" 1.000E-01 2.500 F 0.000 -0.860 B 691 0.34 Yes No
Epona O A 1987-01-29.12333 1.000E-05 02:30:37.010 1.500E-01 2.500 F 0.000 -0.326 +05° 26' 11.80" 1.000E-01 2.500 F 0.000 -0.634 B 691 0.29 Yes No
Taranis O A 1987-01-29.13632 1.000E-05 02:53:42.140 1.500E-01 2.500 F 0.000 -0.885 -05° 14' 53.40" 1.000E-01 2.500 F 0.000 0.735 B 691 0.46 Yes No
Taranis O A 1987-01-29.15264 1.000E-05 02:53:43.620 1.500E-01 2.500 F 0.000 -0.825 -05° 14' 40.20" 1.000E-01 2.500 F 0.000 0.871 B 691 0.48 Yes No
Epona O A 1987-02-28.13168 1.000E-05 03:15:16.150 1.500E-01 2.500 F 0.000 1.095 +07° 26' 53.30" 1.000E-01 2.500 F 0.000 0.119 19.9 V 0.70 -0.14 B 691 0.44 Yes Yes
Epona O A 1987-02-28.13956 1.000E-05 03:15:16.830 1.500E-01 2.500 F 0.000 0.819 +07° 26' 55.30" 1.000E-01 2.500 F 0.000 0.152 B 691 0.33 Yes No
Dionysus O A 1987-02-28.38374 1.000E-05 11:03:01.520 1.500E-01 2.500 F 0.000 -0.513 +30° 19' 43.30" 1.000E-01 2.500 F 0.000 2.913 B 691 1.18 Yes No
Dionysus O A 1987-02-28.39743 1.000E-05 11:03:00.360 1.500E-01 2.500 F 0.000 -0.695 +30° 19' 52.00" 1.000E-01 2.500 F 0.000 2.533 B 691 1.05 Yes No
Dionysus O A 1987-02-28.40976 1.000E-05 11:02:59.340 1.500E-01 2.500 F 0.000 -0.550 +30° 20' 00.30" 1.000E-01 2.500 F 0.000 2.673 19.9 V 0.70 0.19 B 691 1.09 Yes Yes
Taranis O A 1987-03-01.12279 1.000E-05 03:42:06.260 1.500E-01 2.500 F 0.000 0.293 +00° 52' 30.60" 1.000E-01 2.500 F 0.000 -0.185 B 691 0.14 Yes No
Taranis O A 1987-03-01.13918 1.000E-05 03:42:07.750 1.500E-01 2.500 F 0.000 -0.497 +00° 52' 40.40" 1.000E-01 2.500 F 0.000 -0.501 B 691 0.28 Yes No
Taranis O A 1987-03-01.14939 1.000E-05 03:42:08.760 1.500E-01 2.500 F 0.000 0.227 +00° 52' 47.50" 1.000E-01 2.500 F 0.000 0.298 B 691 0.15 Yes No
Dionysus O A 1987-03-02.33056 1.000E-05 11:00:21.500 1.500E-01 2.500 F 0.000 1.183 +30° 40' 56.60" 1.000E-01 2.500 F 0.000 0.592 B 691 0.53 Yes No
Dionysus O A 1987-03-02.34740 1.000E-05 11:00:20.020 1.500E-01 2.500 F 0.000 0.749 +30° 41' 08.10" 1.000E-01 2.500 F 0.000 1.336 B 691 0.61 Yes No
Dionysus O A 1987-03-02.35429 1.000E-05 11:00:19.510 1.500E-01 2.500 F 0.000 1.803 +30° 41' 12.10" 1.000E-01 2.500 F 0.000 0.946 19.7 V 0.70 0.00 B 691 0.81 Yes Yes
Orthos O A 1987-03-02.37112 1.000E-05 12:10:20.800 1.500E-01 2.500 F 0.000 0.704 +02° 27' 30.60" 1.000E-01 2.500 F 0.000 -0.366 B 691 0.32 Yes No
Orthos O A 1987-03-02.37678 1.000E-05 12:10:20.470 1.500E-01 2.500 F 0.000 0.282 +02° 27' 34.90" 1.000E-01 2.500 F 0.000 -0.347 B 691 0.18 Yes No
Orthos O A 1987-03-02.39263 1.000E-05 12:10:19.640 1.500E-01 2.500 F 0.000 0.513 +02° 27' 47.00" 1.000E-01 2.500 F 0.000 -0.237 B 691 0.23 Yes No
Dionysus O A 1987-03-27.27561 1.000E-05 10:25:33.790 1.500E-01 2.500 F 0.000 1.401 +33° 20' 08.00" 1.000E-01 2.500 F 0.000 -0.640 18.9 V 0.70 -0.94 B 691 0.62 Yes Yes
Dionysus O A 1987-03-27.29164 1.000E-05 10:25:32.650 1.500E-01 2.500 F 0.000 2.279 +33° 20' 09.70" 1.000E-01 2.500 F 0.000 -0.331 B 691 0.92 Yes No
Dionysus O A 1987-03-27.29667 1.000E-05 10:25:32.160 1.500E-01 2.500 F 0.000 0.892 +33° 20' 09.80" 1.000E-01 2.500 F 0.000 -0.660 B 691 0.44 Yes No
Dionysus O A 1987-05-01.27198 1.000E-05 10:05:57.370 1.500E-01 2.500 F 0.000 0.291 +30° 53' 19.20" 1.000E-01 2.500 F 0.000 0.248 19.6 V 0.70 -0.54 B 691 0.15 Yes Yes
Dionysus O A 1987-05-01.28035 1.000E-05 10:05:57.460 1.500E-01 2.500 F 0.000 0.663 +30° 53' 15.40" 1.000E-01 2.500 F 0.000 0.908 B 691 0.45 Yes No
Dionysus O A 1987-05-01.29988 1.000E-05 10:05:57.570 1.500E-01 2.500 F 0.000 0.192 +30° 53' 04.70" 1.000E-01 2.500 F 0.000 0.632 B 691 0.26 Yes No
Sisyphus O A 1987-05-01.30683 1.000E-05 13:30:50.510 1.500E-01 2.500 F 0.000 1.307 +40° 03' 04.40" 1.000E-01 2.500 F 0.000 0.809 B 691 0.61 Yes No
Sisyphus O A 1987-05-01.32036 1.000E-05 13:30:49.250 1.500E-01 2.500 F 0.000 1.167 +40° 02' 59.20" 1.000E-01 2.500 F 0.000 0.783 17.7 V 0.70 0.41 B 691 0.56 Yes Yes
Sisyphus O A 1987-05-01.33076 1.000E-05 13:30:48.240 1.500E-01 2.500 F 0.000 0.576 +40° 02' 54.90" 1.000E-01 2.500 F 0.000 0.473 B 691 0.30 Yes No
Dionysus O A 1987-05-02.23573 1.000E-05 10:06:06.830 1.500E-01 2.500 F 0.000 -0.134 +30° 44' 53.00" 1.000E-01 2.500 F 0.000 -0.347 B 691 0.15 Yes No
Dionysus O A 1987-05-02.26093 1.000E-05 10:06:07.020 1.500E-01 2.500 F 0.000 -0.690 +30° 44' 40.90" 1.000E-01 2.500 F 0.000 1.215 B 691 0.56 Yes No
Dionysus O A 1987-05-02.26844 1.000E-05 10:06:07.130 1.500E-01 2.500 F 0.000 -0.189 +30° 44' 36.70" 1.000E-01 2.500 F 0.000 1.096 B 691 0.44 Yes No
Dionysus O A 1987-05-02.27306 1.000E-05 10:06:07.190 1.500E-01 2.500 F 0.000 0.015 +30° 44' 33.70" 1.000E-01 2.500 F 0.000 0.608 B 691 0.24 Yes No
Sisyphus O A 1987-05-02.28604 1.000E-05 13:29:22.610 1.500E-01 2.500 F 0.000 1.551 +39° 56' 42.80" 1.000E-01 2.500 F 0.000 0.882 B 691 0.71 Yes No
Sisyphus O A 1987-05-02.30060 1.000E-05 13:29:21.250 1.500E-01 2.500 F 0.000 1.155 +39° 56' 37.10" 1.000E-01 2.500 F 0.000 1.072 B 691 0.63 Yes No
Sisyphus O A 1987-05-02.31219 1.000E-05 13:29:20.200 1.500E-01 2.500 F 0.000 1.208 +39° 56' 32.40" 1.000E-01 2.500 F 0.000 1.077 18.0 V 0.70 0.70 B 691 0.65 Yes Yes
Vishnu O A 1987-05-23.34637 1.000E-05 19:51:49.440 1.500E-01 2.500 F 0.000 0.953 +01° 53' 35.90" 1.000E-01 2.500 F 0.000 -0.438 B 691 0.42 Yes No
Vishnu O A 1987-05-23.35991 1.000E-05 19:51:49.040 1.500E-01 2.500 F 0.000 1.413 +01° 53' 44.20" 1.000E-01 2.500 F 0.000 -0.607 B 691 0.62 Yes No
Vishnu O A 1987-05-23.37140 1.000E-05 19:51:48.640 1.500E-01 2.500 F 0.000 0.941 +01° 53' 51.30" 1.000E-01 2.500 F 0.000 -0.690 B 691 0.47 Yes No
Vishnu O A 1987-05-24.35006 1.000E-05 19:51:18.800 1.500E-01 2.500 F 0.000 -0.488 +02° 03' 57.90" 1.000E-01 2.500 F 0.000 -0.137 B 691 0.20 Yes No
Vishnu O A 1987-05-24.39433 1.000E-05 19:51:17.260 1.500E-01 2.500 F 0.000 0.230 +02° 04' 25.20" 1.000E-01 2.500 F 0.000 -0.087 B 691 0.10 Yes No
Vishnu O A 1987-05-24.40193 1.000E-05 19:51:16.930 1.500E-01 2.500 F 0.000 -0.579 +02° 04' 29.70" 1.000E-01 2.500 F 0.000 -0.260 B 691 0.25 Yes No
Icarus O A 1987-06-16.15630 1.000E-05 08:31:05.190 1.500E-01 2.500 F 0.000 0.529 +40° 01' 34.30" 1.000E-01 2.500 F 0.000 -0.612 B 691 0.32 Yes No
Icarus O A 1987-06-16.17343 1.000E-05 08:31:32.330 1.500E-01 2.500 F 0.000 -0.578 +40° 00' 15.10" 1.000E-01 2.500 F 0.000 0.100 B 691 0.23 Yes No
Icarus O A 1987-06-16.17738 1.000E-05 08:31:38.670 1.500E-01 2.500 F 0.000 -0.006 +39° 59' 56.70" 1.000E-01 2.500 F 0.000 0.208 B 691 0.08 Yes No
Icarus O A 1987-06-17.15876 1.000E-05 08:58:26.510 1.500E-01 2.500 F 0.000 0.649 +38° 30' 09.80" 1.000E-01 2.500 F 0.000 -2.085 B 691 0.87 Yes No
Icarus O A 1987-06-17.17274 1.000E-05 08:58:49.950 1.500E-01 2.500 F 0.000 1.328 +38° 28' 36.60" 1.000E-01 2.500 F 0.000 -2.064 B 691 0.98 Yes No
Icarus O A 1987-06-17.17497 1.000E-05 08:58:53.620 1.500E-01 2.500 F 0.000 0.584 +38° 28' 21.10" 1.000E-01 2.500 F 0.000 -2.653 B 691 1.09 Yes No
Poseidon O A 1987-06-17.18344 1.000E-05 14:38:10.410 1.500E-01 2.500 F 0.000 -0.446 +03° 26' 12.50" 1.000E-01 2.500 F 0.000 -1.317 B 691 0.56 Yes No
Poseidon O A 1987-06-17.18775 1.000E-05 14:38:10.540 1.500E-01 2.500 F 0.000 -0.294 +03° 26' 04.50" 1.000E-01 2.500 F 0.000 -1.599 B 691 0.65 Yes No
Poseidon O A 1987-06-17.20125 1.000E-05 14:38:10.930 1.500E-01 2.500 F 0.000 -0.080 +03° 25' 41.20" 1.000E-01 2.500 F 0.000 -0.726 B 691 0.29 Yes No
Icarus O A 1987-06-18.16860 1.000E-05 09:27:04.230 1.500E-01 2.500 F 0.000 1.647 +36° 22' 34.40" 1.000E-01 2.500 F 0.000 -1.309 B 691 0.84 Yes No
Icarus O A 1987-06-18.17678 1.000E-05 09:27:18.190 1.500E-01 2.500 F 0.000 1.223 +36° 21' 22.10" 1.000E-01 2.500 F 0.000 -1.235 B 691 0.70 Yes No
Icarus O A 1987-06-18.17900 1.000E-05 09:27:21.930 1.500E-01 2.500 F 0.000 0.499 +36° 21' 02.00" 1.000E-01 2.500 F 0.000 -1.665 B 691 0.70 Yes No
Icarus O A 1987-06-22.18233 1.000E-05 11:15:15.000 1.500E-01 2.500 F 0.000 1.354 +22° 40' 50.00" 1.000E-01 2.500 F 0.000 -0.929 B 691 0.66 Yes No
Icarus O A 1987-06-22.19525 1.000E-05 11:15:33.090 1.500E-01 2.500 F 0.000 0.581 +22° 37' 41.20" 1.000E-01 2.500 F 0.000 -0.482 B 691 0.30 Yes No
Icarus O A 1987-06-22.20846 1.000E-05 11:15:51.590 1.500E-01 2.500 F 0.000 -0.104 +22° 34' 27.70" 1.000E-01 2.500 F 0.000 -0.384 B 691 0.16 Yes No
Poseidon O A 1987-06-23.26619 1.000E-05 14:41:48.040 1.500E-01 2.500 F 0.000 0.638 +00° 39' 02.60" 1.000E-01 2.500 F 0.000 0.568 B 691 0.34 Yes No
Poseidon O A 1987-06-23.27444 1.000E-05 14:41:48.340 1.500E-01 2.500 F 0.000 0.677 +00° 38' 50.20" 1.000E-01 2.500 F 0.000 0.717 B 691 0.39 Yes No
Poseidon O A 1987-06-23.29150 1.000E-05 14:41:48.960 1.500E-01 2.500 F 0.000 0.698 +00° 38' 24.50" 1.000E-01 2.500 F 0.000 0.960 17.6 V 0.70 -0.30 B 691 0.47 Yes Yes
Vishnu O A 1987-06-23.34397 1.000E-05 19:05:57.360 1.500E-01 2.500 F 0.000 2.100 +04° 51' 41.90" 1.000E-01 2.500 F 0.000 -0.483 B 691 0.86 Yes No

[1-200] [201-400] [401-600] [601-800] [801-1000] [1001-1200] [1201-1400] [1401-1600] [1601-1800] [1801-2000] [2001-2200] [2201-2400] [2401-2600] [2601-2800] [2801-3000] [3001-3200] [3201-3400] [3401-3600] [3601-3800] [3801-4000] [4001-4200] [4201-4400] [4401-4600] [4601-4800] [4801-5000] [5001-5200] [5201-5400] [5401-5600] [5601-5800] [5801-6000] [6001-6200] [6201-6400] [6401-6600] [6601-6800] [6801-7000] [7001-7200] [7201-7400] [7401-7600] [7601-7800] [7801-8000] [8001-8200] [8201-8400] [8401-8600] [8601-8800] [8801-9000] [9001-9200] [9201-9400] [9401-9600] [9601-9800] [9801-10000] [10001-10200] [10201-10400] [10401-10600] [10601-10800] [10801-11000] [11001-11200] [11201-11400] [11401-11600] [11601-11800] [11801-12000] [12001-12200] [12201-12400] [12401-12600] [12601-12800] [12801-13000] [13001-13200] [13201-13400] [13401-13600] [13601-13800] [13801-14000] [14001-14200] [14201-14400] [14401-14600] [14601-14800] [14801-15000] [15001-15200] [15201-15400] [15401-15600] [15601-15800] [15801-16000] [16001-16200] [16201-16400] [16401-16600] [16601-16800] [16801-17000] [17001-17200] [17201-17400] [17401-17600] [17601-17800] [17801-18000] [18001-18200] [18201-18400] [18401-18600] [18601-18800] [18801-19000] [19001-19200] [19201-19400] [19401-19600] [19601-19800] [19801-20000] [20001-20200] [20201-20400] [20401-20600] [20601-20800] [20801-21000] [21001-21200] [21201-21400] [21401-21600] [21601-21800] [21801-22000] [22001-22200] [22201-22400] [22401-22600] [22601-22800] [22801-23000] [23001-23200] [23201-23400] [23401-23600] [23601-23800] [23801-24000] [24001-24200] [24201-24400] [24401-24600] [24601-24800] [24801-25000] [25001-25200] [25201-25400] [25401-25600] [25601-25800] [25801-26000] [26001-26200] [26201-26400] [26401-26600] [26601-26800] [26801-27000] [27001-27200] [27201-27400] [27401-27600] [27601-27800] [27801-28000] [28001-28200] [28201-28400] [28401-28600] [28601-28800] [28801-29000] [29001-29200] [29201-29400] [29401-29600] [29601-29800] [29801-30000] [30001-30200] [30201-30400] [30401-30600] [30601-30800] [30801-31000] [31001-31200] [31201-31400] [31401-31600] [31601-31800] [31801-32000] [32001-32200] [32201-32400] [32401-32600] [32601-32800] [32801-33000] [33001-33200] [33201-33400] [33401-33600] [33601-33800] [33801-34000] [34001-34200] [34201-34400] [34401-34600] [34601-34800] [34801-35000] [35001-35200] [35201-35400] [35401-35600] [35601-35800] [35801-36000] [36001-36200] [36201-36400] [36401-36600] [36601-36800] [36801-37000] [37001-37200] [37201-37400] [37401-37600] [37601-37800] [37801-38000] [38001-38200] [38201-38400] [38401-38600] [38601-38800] [38801-39000] [39001-39200] [39201-39400] [39401-39600] [39601-39800] [39801-40000] [40001-40200] [40201-40400] [40401-40600] [40601-40800] [40801-41000] [41001-41200] [41201-41400] [41401-41600] [41601-41800] [41801-42000] [42001-42200] [42201-42400] [42401-42600] [42601-42800] [42801-43000] [43001-43200] [43201-43400] [43401-43600] [43601-43800] [43801-44000] [44001-44200] [44201-44400] [44401-44600] [44601-44800] [44801-45000] [45001-45200] [45201-45400] [45401-45600] [45601-45800] [45801-46000] [46001-46200] [46201-46400] [46401-46600] [46601-46800] [46801-47000] [47001-47200] [47201-47400] [47401-47600] [47601-47800] [47801-48000] [48001-48200] [48201-48400] [48401-48600] [48601-48800] [48801-49000] [49001-49200] [49201-49400] [49401-49600] [49601-49800] [49801-50000] [50001-50200] [50201-50400] [50401-50600] [50601-50741]